This demonstration page uses our WeatherBlox Daily Observations layout. Learn more.

Left ArrowRight Arrow

38.80484, -77.04692

Hourly Observations for November 4, 2015

Temp ( °F °C ) Dew Point ( °F °C ) Humidity (%) Winds ( mph kmh ) Pressure ( in mb ) Visibility ( mi km ) Precip ( " mm )
12:52 am 00:52 Mostly Clear 52 11.1 49 9.4 89 89 Calm 30.29 1026 10 16 0.00 0.00
1:52 am 01:52 Clear 50 10 47 8.3 89 89 N 5 7 30.29 1026 10 16 0.00 0.00
2:52 am 02:52 Clear 51 10.6 47 8.3 86 86 Calm 30.29 1026 10 16 0.00 0.00
3:52 am 03:52 Clear 50 10 48 8.9 93 93 Calm 30.30 1026 10 16 0.00 0.00
4:52 am 04:52 Clear 49 9.4 46 7.8 90 90 Calm 30.32 1027 10 16 0.00 0.00
5:52 am 05:52 Clear 48 8.9 46 7.8 93 93 Calm 30.32 1027 10 16 0.00 0.00
6:52 am 06:52 Mostly Sunny 50 10 47 8.3 89 89 Calm 30.32 1027 10 16 0.00 0.00
7:52 am 07:52 Mostly Sunny 53 11.7 49 9.4 86 86 Calm 30.34 1027 10 16 0.00 0.00
8:52 am 08:52 Mostly Sunny 55 12.8 50 10 83 83 ESE 3 6 30.35 1028 10 16 0.00 0.00
9:52 am 09:52 Mostly Sunny 62 16.7 51 10.6 67 67 Calm 30.35 1028 10 16 0.00 0.00
10:52 am 10:52 Mostly Sunny 65 18.3 51 10.6 61 61 Calm 30.34 1028 10 16 0.00 0.00
11:52 am 11:52 Mostly Sunny 71 21.7 51 10.6 49 49 Calm 30.33 1027 10 16 0.00 0.00
12:52 pm 12:52 Mostly Sunny 73 22.8 47 8.3 40 40 S 3 6 30.30 1026 10 16 0.00 0.00
1:52 pm 13:52 Mostly Sunny 75 23.9 46 7.8 36 36 SSW 5 7 30.29 1026 10 16 0.00 0.00
2:52 pm 14:52 Mostly Sunny 75 23.9 44 6.7 33 33 S 6 9 30.29 1026 10 16 0.00 0.00
3:52 pm 15:52 Mostly Sunny 74 23.3 45 7.2 36 36 SSE 5 7 30.28 1025 10 16 0.00 0.00
4:52 pm 16:52 Mostly Cloudy 69 20.6 43 6.1 39 39 ESE 6 9 30.27 1025 10 16 0.00 0.00
5:52 pm 17:52 Cloudy 67 19.4 47 8.3 49 49 S 5 7 30.29 1026 10 16 0.00 0.00
6:52 pm 18:52 Cloudy 67 19.4 45 7.2 45 45 S 7 11 30.31 1026 10 16 0.00 0.00
7:52 pm 19:52 Cloudy 65 18.3 51 10.6 61 61 SW 5 7 30.30 1026 10 16 0.00 0.00
8:52 pm 20:52 Cloudy 61 16.1 55 12.8 81 81 VRB 3 6 30.33 1027 10 16 0.00 0.03
9:00 pm 21:00 Cloudy with Light Rain 61 16 55 13 83 83 ESE 3 6 30.33 1027 6 10 0.00 0.00
9:36 pm 21:36 Cloudy 61 16 54 12 77 77 Calm 30.33 1027 10 16 0.00 0.00
9:52 pm 21:52 Cloudy 59 15 54 12.2 83 83 Calm 30.33 1027 10 16 0.02 0.51
10:52 pm 22:52 Cloudy 61 16.1 57 13.9 87 87 NW 3 6 30.30 1026 10 16 0.00 0.00
11:52 pm 23:52 Cloudy 59 15 57 13.9 93 93 Calm 30.30 1026 10 16 0.00 0.00

Powered by AerisWeather